This is the latest recevied weather packets stored in our database for station/object M0JUI-1. If no packets are shown the sender has not sent any weather packets the latest 10 day(s).
| Time | Temp. | Humidity | Pressure | Rain* | Wind** | Luminosity | Snow |
|---|---|---|---|---|---|---|---|
| 1777925499 | 10° C | 6% | 1016.4 hPa | 0 mm | - | 0 W/m² | - |
| 1777925199 | 10° C | 8% | 1016.1 hPa | 0 mm | - | 0 W/m² | - |
| 1777924899 | 10° C | 10% | 1016.2 hPa | 0 mm | - | 0 W/m² | - |
| 1777924599 | 10.56° C | 12% | 1016.1 hPa | 0 mm | - | 0 W/m² | - |
| 1777924299 | 10.56° C | 15% | 1016.2 hPa | 0 mm | - | 0 W/m² | - |
| 1777924000 | 10.56° C | 16% | 1016.1 hPa | 0 mm | - | 0 W/m² | - |
| 1777923699 | 10.56° C | 18% | 1016.2 hPa | 0 mm | - | 2 W/m² | - |
| 1777923399 | 10.56° C | 19% | 1016.1 hPa | 0 mm | - | 3 W/m² | - |
| 1777923099 | 11.11° C | 20% | 1016.1 hPa | 0 mm | - | 4 W/m² | - |
| 1777922800 | 11.11° C | 21% | 1015.9 hPa | 0 mm | - | 6 W/m² | - |
| 1777922499 | 11.11° C | 22% | 1016 hPa | 0 mm | - | 9 W/m² | - |
| 1777922199 | 11.11° C | 23% | 1015.9 hPa | 0 mm | - | 10 W/m² | - |
| 1777921900 | 11.11° C | 24% | 1015.8 hPa | 0 mm | - | 12 W/m² | - |
| 1777921599 | 11.67° C | 24% | 1015.8 hPa | 0 mm | - | 13 W/m² | - |
| 1777921299 | 11.67° C | 24% | 1015.8 hPa | 0 mm | - | 14 W/m² | - |
| 1777920999 | 11.67° C | 25% | 1015.9 hPa | 0 mm | - | 18 W/m² | - |
| 1777920700 | 11.67° C | 25% | 1016 hPa | 0 mm | - | 20 W/m² | - |
| 1777920399 | 11.67° C | 25% | 1015.9 hPa | 0 mm | - | 21 W/m² | - |
| 1777920099 | 11.67° C | 25% | 1015.8 hPa | 0 mm | - | 23 W/m² | - |
| 1777919800 | 11.67° C | 25% | 1015.9 hPa | 0 mm | - | 19 W/m² | - |
| 1777919499 | 11.67° C | 25% | 1015.7 hPa | 0 mm | - | 21 W/m² | - |
| 1777919199 | 11.67° C | 25% | 1015.7 hPa | 0 mm | - | 24 W/m² | - |
| 1777918899 | 11.67° C | 25% | 1015.8 hPa | 0 mm | - | 26 W/m² | - |
| 1777918600 | 11.67° C | 25% | 1015.6 hPa | 0 mm | - | 24 W/m² | - |
| 1777918300 | 11.67° C | 25% | 1015.7 hPa | 0 mm | - | 26 W/m² | - |
* Rain latest hour (hover to see other rain measurements)
** Current wind speed in m/s (hover to see current wind gust speed)